Time,TemperatureF,DewpointF,PressureIn,WindDirection,WindDirectionDegrees,WindSpeedMPH,WindSpeedGustMPH,Humidity,HourlyPrecipIn,Conditions,Clouds,dailyrainin,SolarRadiationWatts/m^2,SoftwareType,DateUTC
2013-07-27 00:01:00,56.7,45.9,30.38,West,268,6.0,12.0,67,0.00,,,0.00,0,WeatherCatV1.20B653,2013-07-27 06:01:00,
2013-07-27 00:06:00,56.6,45.8,30.38,NW,313,10.0,13.0,67,0.00,,,0.00,0,WeatherCatV1.20B653,2013-07-27 06:06:00,
2013-07-27 00:11:00,56.5,46.1,30.38,SW,232,8.0,10.0,68,0.00,,,0.00,0,WeatherCatV1.20B653,2013-07-27 06:11:00,
2013-07-27 00:16:00,56.5,45.7,30.38,WNW,284,7.0,13.0,67,0.00,,,0.00,0,WeatherCatV1.20B653,2013-07-27 06:16:00,
2013-07-27 00:21:00,56.6,45.8,30.38,NW,309,11.0,11.0,67,0.00,,,0.00,0,WeatherCatV1.20B653,2013-07-27 06:21:00,
2013-07-27 00:26:00,56.7,45.5,30.38,NW,305,2.0,3.0,66,0.00,,,0.00,0,WeatherCatV1.20B653,2013-07-27 06:26:00,
2013-07-27 00:31:00,56.7,45.5,30.38,NW,304,0.0,0.0,66,0.00,,,0.00,0,WeatherCatV1.20B653,2013-07-27 06:31:00,
2013-07-27 00:36:00,56.6,45.8,30.38,NW,305,0.0,1.0,67,0.00,,,0.00,0,WeatherCatV1.20B653,2013-07-27 06:36:00,
2013-07-27 00:41:00,56.3,45.5,30.38,NW,305,0.0,0.0,67,0.00,,,0.00,0,WeatherCatV1.20B653,2013-07-27 06:41:00,
2013-07-27 00:46:00,56.2,45.8,30.38,NW,305,0.0,0.0,68,0.00,,,0.00,0,WeatherCatV1.20B653,2013-07-27 06:46:00,
2013-07-27 00:51:00,55.9,45.5,30.38,NW,305,0.0,0.0,68,0.00,,,0.00,0,WeatherCatV1.20B653,2013-07-27 06:51:00,
2013-07-27 00:56:00,55.6,46.0,30.38,NW,305,0.0,3.0,70,0.00,,,0.00,0,WeatherCatV1.20B653,2013-07-27 06:56:00,
2013-07-27 01:01:00,54.8,45.6,30.38,NW,305,0.0,0.0,71,0.00,,,0.00,0,WeatherCatV1.20B653,2013-07-27 07:01:00,
2013-07-27 01:06:00,54.4,45.6,30.38,NW,305,0.0,0.0,72,0.00,,,0.00,0,WeatherCatV1.20B653,2013-07-27 07:06:00,
2013-07-27 01:11:00,53.8,45.3,30.38,NW,305,0.0,0.0,73,0.00,,,0.00,0,WeatherCatV1.20B653,2013-07-27 07:11:00,
2013-07-27 01:16:00,53.2,45.1,30.38,NW,305,0.0,0.0,74,0.00,,,0.00,0,WeatherCatV1.20B653,2013-07-27 07:16:00,
2013-07-27 01:21:00,52.9,44.8,30.38,NW,305,0.0,0.0,74,0.00,,,0.00,0,WeatherCatV1.20B653,2013-07-27 07:21:00,
2013-07-27 01:26:00,53.1,45.0,30.38,WNW,298,9.0,12.0,74,0.00,,,0.00,0,WeatherCatV1.20B653,2013-07-27 07:26:00,
2013-07-27 01:31:00,53.5,45.1,30.37,WNW,295,6.0,10.0,73,0.00,,,0.00,0,WeatherCatV1.20B653,2013-07-27 07:31:00,
2013-07-27 01:36:00,53.8,45.0,30.37,NW,305,2.0,4.0,72,0.00,,,0.00,0,WeatherCatV1.20B653,2013-07-27 07:36:00,
2013-07-27 01:41:00,53.8,45.0,30.37,NW,305,0.0,0.0,72,0.00,,,0.00,0,WeatherCatV1.20B653,2013-07-27 07:41:00,
2013-07-27 01:46:00,53.2,45.1,30.37,NW,305,0.0,0.0,74,0.00,,,0.00,0,WeatherCatV1.20B653,2013-07-27 07:46:00,
2013-07-27 01:51:00,52.8,44.7,30.37,NW,305,0.0,0.0,74,0.00,,,0.00,0,WeatherCatV1.20B653,2013-07-27 07:51:00,
2013-07-27 01:56:00,52.3,45.0,30.37,NW,305,0.0,0.0,76,0.00,,,0.00,0,WeatherCatV1.20B653,2013-07-27 07:56:00,
2013-07-27 02:01:00,52.0,44.7,30.37,NW,305,0.0,0.0,76,0.00,,,0.00,0,WeatherCatV1.20B653,2013-07-27 08:01:00,
2013-07-27 02:06:00,51.6,44.6,30.37,NW,305,3.0,3.0,77,0.00,,,0.00,0,WeatherCatV1.20B653,2013-07-27 08:06:00,
2013-07-27 02:11:00,51.1,44.1,30.37,NW,305,0.0,2.0,77,0.00,,,0.00,0,WeatherCatV1.20B653,2013-07-27 08:11:00,
2013-07-27 02:16:00,50.8,44.2,30.37,NW,305,0.0,0.0,78,0.00,,,0.00,0,WeatherCatV1.20B653,2013-07-27 08:16:00,
2013-07-27 02:21:00,50.7,44.1,30.37,NW,305,0.0,0.0,78,0.00,,,0.00,0,WeatherCatV1.20B653,2013-07-27 08:21:00,
2013-07-27 02:26:00,50.5,43.9,30.37,NW,305,0.0,0.0,78,0.00,,,0.00,0,WeatherCatV1.20B653,2013-07-27 08:26:00,
2013-07-27 02:31:00,50.4,44.1,30.36,NW,305,0.0,0.0,79,0.00,,,0.00,0,WeatherCatV1.20B653,2013-07-27 08:31:00,
2013-07-27 02:36:00,50.1,43.8,30.36,NW,305,0.0,0.0,79,0.00,,,0.00,0,WeatherCatV1.20B653,2013-07-27 08:36:00,
2013-07-27 02:41:00,50.1,43.8,30.36,NW,305,0.0,0.0,79,0.00,,,0.00,0,WeatherCatV1.20B653,2013-07-27 08:41:00,
2013-07-27 02:46:00,49.8,43.9,30.36,NW,305,0.0,0.0,80,0.00,,,0.00,0,WeatherCatV1.20B653,2013-07-27 08:46:00,
2013-07-27 02:51:00,49.8,43.9,30.36,NW,305,0.0,0.0,80,0.00,,,0.00,0,WeatherCatV1.20B653,2013-07-27 08:51:00,
2013-07-27 02:56:00,49.5,43.6,30.36,NW,305,0.0,0.0,80,0.00,,,0.00,0,WeatherCatV1.20B653,2013-07-27 08:56:00,
2013-07-27 03:01:00,49.4,43.5,30.35,NW,305,0.0,0.0,80,0.00,,,0.00,0,WeatherCatV1.20B653,2013-07-27 09:01:00,
2013-07-27 03:06:00,49.2,43.6,30.35,NW,305,0.0,0.0,81,0.00,,,0.00,0,WeatherCatV1.20B653,2013-07-27 09:06:00,
2013-07-27 03:11:00,49.1,43.5,30.35,NW,305,0.0,0.0,81,0.00,,,0.00,0,WeatherCatV1.20B653,2013-07-27 09:11:00,
2013-07-27 03:16:00,49.2,43.3,30.35,NW,305,2.0,2.0,80,0.00,,,0.00,0,WeatherCatV1.20B653,2013-07-27 09:16:00,
2013-07-27 03:21:00,49.5,43.6,30.35,NW,305,0.0,2.0,80,0.00,,,0.00,0,WeatherCatV1.20B653,2013-07-27 09:21:00,
2013-07-27 03:26:00,49.5,43.6,30.35,NW,305,0.0,0.0,80,0.00,,,0.00,0,WeatherCatV1.20B653,2013-07-27 09:26:00,
2013-07-27 03:31:00,49.4,43.5,30.35,NW,305,0.0,2.0,80,0.00,,,0.00,0,WeatherCatV1.20B653,2013-07-27 09:31:00,
2013-07-27 03:36:00,49.4,43.5,30.35,NW,305,0.0,0.0,80,0.00,,,0.00,0,WeatherCatV1.20B653,2013-07-27 09:36:00,
2013-07-27 03:41:00,49.4,43.5,30.35,NW,305,2.0,3.0,80,0.00,,,0.00,0,WeatherCatV1.20B653,2013-07-27 09:41:00,
2013-07-27 03:46:00,49.2,43.3,30.35,SW,220,0.0,0.0,80,0.00,,,0.00,0,WeatherCatV1.20B653,2013-07-27 09:46:00,
2013-07-27 03:51:00,49.1,43.2,30.35,SW,220,0.0,0.0,80,0.00,,,0.00,0,WeatherCatV1.20B653,2013-07-27 09:51:00,
2013-07-27 03:56:00,48.9,43.0,30.35,SW,220,0.0,0.0,80,0.00,,,0.00,0,WeatherCatV1.20B653,2013-07-27 09:56:00,
2013-07-27 04:01:00,48.9,43.0,30.35,WNW,282,7.0,7.0,80,0.00,,,0.00,0,WeatherCatV1.20B653,2013-07-27 10:01:00,
2013-07-27 04:06:00,49.1,43.5,30.35,SE,137,0.0,3.0,81,0.00,,,0.00,0,WeatherCatV1.20B653,2013-07-27 10:06:00,
2013-07-27 04:11:00,49.4,43.2,30.35,SE,137,0.0,0.0,79,0.00,,,0.00,0,WeatherCatV1.20B653,2013-07-27 10:11:00,
2013-07-27 04:16:00,49.5,43.3,30.35,SE,137,0.0,0.0,79,0.00,,,0.00,0,WeatherCatV1.20B653,2013-07-27 10:16:00,
2013-07-27 04:21:00,49.5,43.3,30.35,SE,140,0.0,0.0,79,0.00,,,0.00,0,WeatherCatV1.20B653,2013-07-27 10:21:00,
2013-07-27 04:26:00,49.6,43.0,30.35,NW,326,2.0,8.0,78,0.00,,,0.00,0,WeatherCatV1.20B653,2013-07-27 10:26:00,
2013-07-27 04:31:00,50.2,43.3,30.35,West,271,1.0,7.0,77,0.00,,,0.00,0,WeatherCatV1.20B653,2013-07-27 10:31:00,
2013-07-27 04:36:00,50.7,43.4,30.35,West,272,0.0,1.0,76,0.00,,,0.00,0,WeatherCatV1.20B653,2013-07-27 10:36:00,
2013-07-27 04:41:00,50.7,43.4,30.35,West,272,2.0,3.0,76,0.00,,,0.00,0,WeatherCatV1.20B653,2013-07-27 10:41:00,
2013-07-27 04:46:00,50.5,43.6,30.34,West,272,0.0,0.0,77,0.00,,,0.00,0,WeatherCatV1.20B653,2013-07-27 10:46:00,
2013-07-27 04:51:00,50.4,43.1,30.34,West,272,2.0,3.0,76,0.00,,,0.00,0,WeatherCatV1.20B653,2013-07-27 10:51:00,
2013-07-27 04:56:00,50.1,43.2,30.34,WNW,287,0.0,5.0,77,0.00,,,0.00,0,WeatherCatV1.20B653,2013-07-27 10:56:00,
2013-07-27 05:01:00,49.8,42.9,30.34,WNW,287,0.0,0.0,77,0.00,,,0.00,0,WeatherCatV1.20B653,2013-07-27 11:01:00,
2013-07-27 05:06:00,49.6,43.0,30.34,WNW,287,2.0,3.0,78,0.00,,,0.00,0,WeatherCatV1.20B653,2013-07-27 11:06:00,
2013-07-27 05:11:00,49.5,42.6,30.34,WNW,287,0.0,0.0,77,0.00,,,0.00,0,WeatherCatV1.20B653,2013-07-27 11:11:00,
2013-07-27 05:16:00,49.2,42.6,30.34,WNW,287,0.0,0.0,78,0.00,,,0.00,0,WeatherCatV1.20B653,2013-07-27 11:16:00,
2013-07-27 05:21:00,49.1,42.9,30.34,WNW,287,0.0,0.0,79,0.00,,,0.00,0,WeatherCatV1.20B653,2013-07-27 11:21:00,
2013-07-27 05:26:00,48.8,42.9,30.34,WNW,287,0.0,0.0,80,0.00,,,0.00,0,WeatherCatV1.20B653,2013-07-27 11:26:00,
2013-07-27 05:31:00,48.6,42.7,30.34,WNW,287,0.0,0.0,80,0.00,,,0.00,0,WeatherCatV1.20B653,2013-07-27 11:31:00,
2013-07-27 05:36:00,48.6,42.7,30.34,WNW,287,0.0,0.0,80,0.00,,,0.00,0,WeatherCatV1.20B653,2013-07-27 11:36:00,
2013-07-27 05:41:00,48.8,42.9,30.34,WNW,287,0.0,0.0,80,0.00,,,0.00,0,WeatherCatV1.20B653,2013-07-27 11:41:00,
2013-07-27 05:46:00,48.8,42.6,30.34,WNW,287,5.0,5.0,79,0.00,,,0.00,0,WeatherCatV1.20B653,2013-07-27 11:46:00,
2013-07-27 05:51:00,48.5,42.6,30.34,WNW,287,0.0,0.0,80,0.00,,,0.00,0,WeatherCatV1.20B653,2013-07-27 11:51:00,
2013-07-27 05:56:00,48.3,42.7,30.34,WNW,287,0.0,0.0,81,0.00,,,0.00,5,WeatherCatV1.20B653,2013-07-27 11:56:00,
2013-07-27 06:01:00,48.2,42.7,30.34,WNW,287,0.0,0.0,81,0.00,,,0.00,7,WeatherCatV1.20B653,2013-07-27 12:01:00,
2013-07-27 06:06:00,48.2,43.0,30.34,WNW,287,0.0,0.0,82,0.00,,,0.00,9,WeatherCatV1.20B653,2013-07-27 12:06:00,
2013-07-27 06:11:00,48.2,43.0,30.34,WNW,287,0.0,0.0,82,0.00,,,0.00,11,WeatherCatV1.20B653,2013-07-27 12:11:00,
2013-07-27 06:16:00,48.2,43.0,30.34,WNW,287,0.0,0.0,82,0.00,,,0.00,16,WeatherCatV1.20B653,2013-07-27 12:16:00,
2013-07-27 06:21:00,48.2,43.0,30.34,WNW,287,0.0,0.0,82,0.00,,,0.00,23,WeatherCatV1.20B653,2013-07-27 12:21:00,
2013-07-27 06:26:00,48.3,43.1,30.34,WNW,287,0.0,0.0,82,0.00,,,0.00,26,WeatherCatV1.20B653,2013-07-27 12:26:00,
2013-07-27 06:31:00,48.5,43.3,30.34,WNW,287,0.0,2.0,82,0.00,,,0.00,30,WeatherCatV1.20B653,2013-07-27 12:31:00,
2013-07-27 06:36:00,48.8,43.5,30.34,WNW,287,0.0,0.0,82,0.00,,,0.00,35,WeatherCatV1.20B653,2013-07-27 12:36:00,
2013-07-27 06:41:00,49.4,43.5,30.34,WNW,287,0.0,0.0,80,0.00,,,0.00,39,WeatherCatV1.20B653,2013-07-27 12:41:00,
2013-07-27 06:46:00,49.6,43.7,30.34,WNW,287,0.0,0.0,80,0.00,,,0.00,39,WeatherCatV1.20B653,2013-07-27 12:46:00,
2013-07-27 06:51:00,49.9,44.0,30.34,WNW,287,0.0,0.0,80,0.00,,,0.00,42,WeatherCatV1.20B653,2013-07-27 12:51:00,
2013-07-27 06:56:00,50.4,44.5,30.34,WNW,287,0.0,0.0,80,0.00,,,0.00,53,WeatherCatV1.20B653,2013-07-27 12:56:00,
2013-07-27 07:01:00,50.7,44.4,30.34,WNW,288,2.0,5.0,79,0.00,,,0.00,77,WeatherCatV1.20B653,2013-07-27 13:01:00,
2013-07-27 07:06:00,51.0,44.7,30.34,WNW,288,0.0,0.0,79,0.00,,,0.00,104,WeatherCatV1.20B653,2013-07-27 13:06:00,
2013-07-27 07:11:00,51.7,45.4,30.34,WNW,288,0.0,1.0,79,0.00,,,0.00,127,WeatherCatV1.20B653,2013-07-27 13:11:00,
2013-07-27 07:16:00,52.3,46.0,30.34,WNW,288,0.0,0.0,79,0.00,,,0.00,151,WeatherCatV1.20B653,2013-07-27 13:16:00,
2013-07-27 07:21:00,52.8,45.8,30.34,WNW,288,0.0,0.0,77,0.00,,,0.00,125,WeatherCatV1.20B653,2013-07-27 13:21:00,
2013-07-27 07:26:00,53.2,46.2,30.34,WNW,287,0.0,0.0,77,0.00,,,0.00,153,WeatherCatV1.20B653,2013-07-27 13:26:00,
2013-07-27 07:31:00,53.9,46.9,30.34,WNW,287,0.0,0.0,77,0.00,,,0.00,160,WeatherCatV1.20B653,2013-07-27 13:31:00,
2013-07-27 07:36:00,54.8,46.3,30.34,NNW,343,4.0,6.0,73,0.00,,,0.00,172,WeatherCatV1.20B653,2013-07-27 13:36:00,
2013-07-27 07:41:00,55.6,46.7,30.34,NNW,343,0.0,0.0,72,0.00,,,0.00,215,WeatherCatV1.20B653,2013-07-27 13:41:00,
2013-07-27 07:46:00,56.3,47.0,30.33,NNW,343,0.0,0.0,71,0.00,,,0.00,238,WeatherCatV1.20B653,2013-07-27 13:46:00,
2013-07-27 07:51:00,57.2,46.7,30.33,NNW,343,0.0,1.0,68,0.00,,,0.00,280,WeatherCatV1.20B653,2013-07-27 13:51:00,
2013-07-27 07:56:00,57.8,47.3,30.33,NNW,343,0.0,0.0,68,0.00,,,0.00,294,WeatherCatV1.20B653,2013-07-27 13:56:00,
2013-07-27 08:01:00,58.7,47.4,30.33,NNW,343,0.0,0.0,66,0.00,,,0.00,301,WeatherCatV1.20B653,2013-07-27 14:01:00,
2013-07-27 08:06:00,59.9,48.1,30.33,NNW,344,0.0,4.0,65,0.00,,,0.00,345,WeatherCatV1.20B653,2013-07-27 14:06:00,
2013-07-27 08:11:00,60.9,48.2,30.33,South,184,6.0,6.0,63,0.00,,,0.00,271,WeatherCatV1.20B653,2013-07-27 14:11:00,
2013-07-27 08:16:00,61.8,48.6,30.32,ENE,59,0.0,3.0,62,0.00,,,0.00,422,WeatherCatV1.20B653,2013-07-27 14:16:00,
2013-07-27 08:21:00,62.7,48.2,30.32,ESE,103,2.0,7.0,59,0.00,,,0.00,415,WeatherCatV1.20B653,2013-07-27 14:21:00,
2013-07-27 08:26:00,63.2,48.6,30.32,ESE,104,0.0,2.0,59,0.00,,,0.00,361,WeatherCatV1.20B653,2013-07-27 14:26:00,
2013-07-27 08:31:00,64.0,48.0,30.32,ESE,110,2.0,6.0,56,0.00,,,0.00,405,WeatherCatV1.20B653,2013-07-27 14:31:00,
2013-07-27 08:36:00,64.5,48.9,30.32,ESE,110,0.0,0.0,57,0.00,,,0.00,450,WeatherCatV1.20B653,2013-07-27 14:36:00,
2013-07-27 08:41:00,65.3,44.5,30.32,WSW,239,10.0,12.0,47,0.00,,,0.00,426,WeatherCatV1.20B653,2013-07-27 14:41:00,
2013-07-27 08:46:00,66.1,44.7,30.32,SSW,205,8.0,12.0,46,0.00,,,0.00,466,WeatherCatV1.20B653,2013-07-27 14:46:00,
2013-07-27 08:51:00,66.9,43.7,30.32,SSW,212,9.0,14.0,43,0.00,,,0.00,521,WeatherCatV1.20B653,2013-07-27 14:51:00,
2013-07-27 08:56:00,67.3,44.0,30.32,West,281,12.0,15.0,43,0.00,,,0.00,424,WeatherCatV1.20B653,2013-07-27 14:56:00,
2013-07-27 09:01:00,67.6,44.3,30.31,NW,313,5.0,14.0,43,0.00,,,0.00,544,WeatherCatV1.20B653,2013-07-27 15:01:00,
2013-07-27 09:06:00,67.9,44.6,30.31,SSW,199,7.0,20.0,43,0.00,,,0.00,604,WeatherCatV1.20B653,2013-07-27 15:06:00,
2013-07-27 09:11:00,68.3,44.3,30.31,WSW,250,9.0,19.0,42,0.00,,,0.00,540,WeatherCatV1.20B653,2013-07-27 15:11:00,
2013-07-27 09:16:00,68.4,43.8,30.31,SSW,206,6.0,17.0,41,0.00,,,0.00,607,WeatherCatV1.20B653,2013-07-27 15:16:00,
2013-07-27 09:21:00,68.8,44.1,30.31,SW,224,5.0,19.0,41,0.00,,,0.00,619,WeatherCatV1.20B653,2013-07-27 15:21:00,
2013-07-27 09:26:00,69.1,45.0,30.31,West,280,11.0,13.0,42,0.00,,,0.00,646,WeatherCatV1.20B653,2013-07-27 15:26:00,
2013-07-27 09:31:00,69.3,43.9,30.31,WNW,298,7.0,14.0,40,0.00,,,0.00,412,WeatherCatV1.20B653,2013-07-27 15:31:00,
2013-07-27 09:36:00,69.3,44.6,30.31,WNW,295,7.0,14.0,41,0.00,,,0.00,662,WeatherCatV1.20B653,2013-07-27 15:36:00,
2013-07-27 09:41:00,69.6,44.8,30.31,WSW,243,10.0,19.0,41,0.00,,,0.00,519,WeatherCatV1.20B653,2013-07-27 15:41:00,
2013-07-27 09:46:00,69.6,43.5,30.31,South,181,10.0,13.0,39,0.00,,,0.00,695,WeatherCatV1.20B653,2013-07-27 15:46:00,
2013-07-27 09:51:00,69.9,45.1,30.31,SW,224,6.0,7.0,41,0.00,,,0.00,718,WeatherCatV1.20B653,2013-07-27 15:51:00,
2013-07-27 09:56:00,70.4,45.6,30.31,WSW,237,7.0,16.0,41,0.00,,,0.00,684,WeatherCatV1.20B653,2013-07-27 15:56:00,
2013-07-27 10:01:00,70.6,43.8,30.30,WNW,299,11.0,14.0,38,0.00,,,0.00,693,WeatherCatV1.20B653,2013-07-27 16:01:00,
2013-07-27 10:06:00,70.8,43.2,30.30,SSW,210,3.0,7.0,37,0.00,,,0.00,612,WeatherCatV1.20B653,2013-07-27 16:06:00,
2013-07-27 10:11:00,70.9,44.0,30.30,West,265,12.0,14.0,38,0.00,,,0.00,491,WeatherCatV1.20B653,2013-07-27 16:11:00,
2013-07-27 10:16:00,71.3,44.4,30.30,WNW,298,7.0,18.0,38,0.00,,,0.00,772,WeatherCatV1.20B653,2013-07-27 16:16:00,
2013-07-27 10:21:00,71.3,43.7,30.30,SSW,210,8.0,13.0,37,0.00,,,0.00,795,WeatherCatV1.20B653,2013-07-27 16:21:00,
2013-07-27 10:26:00,71.5,43.1,30.30,WSW,251,10.0,11.0,36,0.00,,,0.00,684,WeatherCatV1.20B653,2013-07-27 16:26:00,
2013-07-27 10:31:00,71.8,42.7,30.29,West,280,5.0,12.0,35,0.00,,,0.00,609,WeatherCatV1.20B653,2013-07-27 16:31:00,
2013-07-27 10:36:00,71.8,44.8,30.29,SW,229,10.0,13.0,38,0.00,,,0.00,797,WeatherCatV1.20B653,2013-07-27 16:36:00,
2013-07-27 10:41:00,72.1,42.2,30.29,WSW,253,13.0,14.0,34,0.00,,,0.00,750,WeatherCatV1.20B653,2013-07-27 16:41:00,
2013-07-27 10:46:00,72.5,43.3,30.29,West,263,13.0,14.0,35,0.00,,,0.00,808,WeatherCatV1.20B653,2013-07-27 16:46:00,
2013-07-27 10:51:00,72.7,43.5,30.29,SW,226,8.0,14.0,35,0.00,,,0.00,801,WeatherCatV1.20B653,2013-07-27 16:51:00,
2013-07-27 10:56:00,72.3,42.3,30.29,WSW,254,4.0,19.0,34,0.00,,,0.00,751,WeatherCatV1.20B653,2013-07-27 16:56:00,
2013-07-27 11:01:00,72.5,43.3,30.29,WNW,298,6.0,17.0,35,0.00,,,0.00,808,WeatherCatV1.20B653,2013-07-27 17:01:00,
2013-07-27 11:06:00,73.0,42.2,30.29,West,268,6.0,17.0,33,0.00,,,0.00,887,WeatherCatV1.20B653,2013-07-27 17:06:00,
2013-07-27 11:11:00,73.3,41.7,30.29,SSW,196,6.0,13.0,32,0.00,,,0.00,822,WeatherCatV1.20B653,2013-07-27 17:11:00,
2013-07-27 11:16:00,73.5,41.8,30.28,WSW,253,10.0,18.0,32,0.00,,,0.00,911,WeatherCatV1.20B653,2013-07-27 17:16:00,
2013-07-27 11:21:00,73.9,43.8,30.28,WSW,237,7.0,16.0,34,0.00,,,0.00,927,WeatherCatV1.20B653,2013-07-27 17:21:00,
2013-07-27 11:26:00,74.0,41.4,30.28,SW,227,13.0,13.0,31,0.00,,,0.00,883,WeatherCatV1.20B653,2013-07-27 17:26:00,
2013-07-27 11:31:00,74.6,43.6,30.28,South,189,5.0,12.0,33,0.00,,,0.00,968,WeatherCatV1.20B653,2013-07-27 17:31:00,
2013-07-27 11:36:00,75.3,40.8,30.28,SW,216,6.0,16.0,29,0.00,,,0.00,899,WeatherCatV1.20B653,2013-07-27 17:36:00,
2013-07-27 11:41:00,75.4,43.5,30.28,WSW,250,7.0,17.0,32,0.00,,,0.00,985,WeatherCatV1.20B653,2013-07-27 17:41:00,
2013-07-27 11:46:00,75.8,43.0,30.27,SW,236,13.0,13.0,31,0.00,,,0.00,968,WeatherCatV1.20B653,2013-07-27 17:46:00,
2013-07-27 11:51:00,76.3,41.7,30.27,WSW,237,13.0,21.0,29,0.00,,,0.00,984,WeatherCatV1.20B653,2013-07-27 17:51:00,
2013-07-27 11:56:00,76.1,40.6,30.27,SSW,206,3.0,12.0,28,0.00,,,0.00,1045,WeatherCatV1.20B653,2013-07-27 17:56:00,
2013-07-27 12:01:00,76.7,42.0,30.26,WSW,239,5.0,13.0,29,0.00,,,0.00,1066,WeatherCatV1.20B653,2013-07-27 18:01:00,
2013-07-27 12:06:00,77.4,40.8,30.26,WSW,247,13.0,13.0,27,0.00,,,0.00,952,WeatherCatV1.20B653,2013-07-27 18:06:00,
2013-07-27 12:11:00,77.2,40.6,30.26,South,188,8.0,10.0,27,0.00,,,0.00,1126,WeatherCatV1.20B653,2013-07-27 18:11:00,
2013-07-27 12:16:00,76.8,40.3,30.26,SW,234,7.0,11.0,27,0.00,,,0.00,362,WeatherCatV1.20B653,2013-07-27 18:16:00,
2013-07-27 12:21:00,76.7,41.1,30.26,South,182,6.0,12.0,28,0.00,,,0.00,1087,WeatherCatV1.20B653,2013-07-27 18:21:00,
2013-07-27 12:26:00,77.2,40.6,30.26,WSW,248,11.0,12.0,27,0.00,,,0.00,1117,WeatherCatV1.20B653,2013-07-27 18:26:00,
2013-07-27 12:31:00,77.7,41.0,30.25,WSW,248,4.0,8.0,27,0.00,,,0.00,1061,WeatherCatV1.20B653,2013-07-27 18:31:00,
2013-07-27 12:36:00,78.5,40.7,30.25,NNW,328,11.0,19.0,26,0.00,,,0.00,1036,WeatherCatV1.20B653,2013-07-27 18:36:00,
2013-07-27 12:41:00,78.8,41.0,30.25,WSW,247,4.0,12.0,26,0.00,,,0.00,1133,WeatherCatV1.20B653,2013-07-27 18:41:00,
2013-07-27 12:46:00,78.6,40.8,30.25,WSW,248,12.0,14.0,26,0.00,,,0.00,1133,WeatherCatV1.20B653,2013-07-27 18:46:00,
2013-07-27 12:51:00,77.6,40.0,30.25,SW,226,8.0,17.0,26,0.00,,,0.00,362,WeatherCatV1.20B653,2013-07-27 18:51:00,
2013-07-27 12:56:00,76.3,39.8,30.25,SW,229,5.0,15.0,27,0.00,,,0.00,324,WeatherCatV1.20B653,2013-07-27 18:56:00,
2013-07-27 13:01:00,76.7,39.2,30.24,WSW,240,7.0,16.0,26,0.00,,,0.00,1003,WeatherCatV1.20B653,2013-07-27 19:01:00,
2013-07-27 13:06:00,77.4,40.8,30.24,WSW,253,11.0,18.0,27,0.00,,,0.00,1042,WeatherCatV1.20B653,2013-07-27 19:06:00,
2013-07-27 13:11:00,77.9,42.2,30.24,West,265,5.0,11.0,28,0.00,,,0.00,1024,WeatherCatV1.20B653,2013-07-27 19:11:00,
2013-07-27 13:16:00,78.8,38.9,30.23,SSW,208,6.0,17.0,24,0.00,,,0.00,1091,WeatherCatV1.20B653,2013-07-27 19:16:00,
2013-07-27 13:21:00,78.6,38.8,30.23,West,268,10.0,11.0,24,0.00,,,0.00,1047,WeatherCatV1.20B653,2013-07-27 19:21:00,
2013-07-27 13:26:00,78.1,41.4,30.23,NW,316,2.0,8.0,27,0.00,,,0.00,1154,WeatherCatV1.20B653,2013-07-27 19:26:00,
2013-07-27 13:31:00,78.3,38.5,30.23,West,280,11.0,16.0,24,0.00,,,0.00,1186,WeatherCatV1.20B653,2013-07-27 19:31:00,
2013-07-27 13:36:00,77.4,37.8,30.23,SW,222,1.0,10.0,24,0.00,,,0.00,276,WeatherCatV1.20B653,2013-07-27 19:36:00,
2013-07-27 13:41:00,76.8,38.3,30.23,SSW,193,8.0,9.0,25,0.00,,,0.00,278,WeatherCatV1.20B653,2013-07-27 19:41:00,
2013-07-27 13:46:00,76.5,38.0,30.22,South,181,6.0,6.0,25,0.00,,,0.00,333,WeatherCatV1.20B653,2013-07-27 19:46:00,
2013-07-27 13:51:00,77.6,41.0,30.22,SSW,203,10.0,13.0,27,0.00,,,0.00,276,WeatherCatV1.20B653,2013-07-27 19:51:00,
2013-07-27 13:56:00,76.5,41.0,30.22,ESE,117,9.0,13.0,28,0.00,,,0.00,199,WeatherCatV1.20B653,2013-07-27 19:56:00,
2013-07-27 14:01:00,75.6,40.2,30.22,SSE,147,0.0,8.0,28,0.00,,,0.00,230,WeatherCatV1.20B653,2013-07-27 20:01:00,
2013-07-27 14:06:00,75.6,38.3,30.22,WSW,250,0.0,8.0,26,0.00,,,0.00,313,WeatherCatV1.20B653,2013-07-27 20:06:00,
2013-07-27 14:11:00,76.0,39.6,30.22,North,352,8.0,11.0,27,0.00,,,0.00,303,WeatherCatV1.20B653,2013-07-27 20:11:00,
2013-07-27 14:16:00,76.0,38.6,30.22,North,0,8.0,14.0,26,0.00,,,0.00,278,WeatherCatV1.20B653,2013-07-27 20:16:00,
2013-07-27 14:21:00,76.0,40.5,30.22,North,359,3.0,11.0,28,0.00,,,0.00,283,WeatherCatV1.20B653,2013-07-27 20:21:00,
2013-07-27 14:26:00,76.0,38.6,30.22,NNW,343,13.0,13.0,26,0.00,,,0.00,280,WeatherCatV1.20B653,2013-07-27 20:26:00,
2013-07-27 14:31:00,75.8,39.4,30.22,NW,313,4.0,8.0,27,0.00,,,0.00,308,WeatherCatV1.20B653,2013-07-27 20:31:00,
2013-07-27 14:36:00,75.8,39.4,30.22,NW,320,5.0,10.0,27,0.00,,,0.00,445,WeatherCatV1.20B653,2013-07-27 20:36:00,
2013-07-27 14:41:00,76.0,39.6,30.22,North,0,0.0,3.0,27,0.00,,,0.00,468,WeatherCatV1.20B653,2013-07-27 20:41:00,
2013-07-27 14:46:00,75.8,41.3,30.23,East,83,9.0,14.0,29,0.00,,,0.00,419,WeatherCatV1.20B653,2013-07-27 20:46:00,
2013-07-27 14:51:00,74.2,39.9,30.23,NNE,13,18.0,22.0,29,0.00,,,0.00,375,WeatherCatV1.20B653,2013-07-27 20:51:00,
2013-07-27 14:56:00,73.2,41.6,30.23,NE,41,10.0,13.0,32,0.00,,,0.00,378,WeatherCatV1.20B653,2013-07-27 20:56:00,
2013-07-27 15:01:00,72.5,41.8,30.23,NE,40,17.0,18.0,33,0.00,,,0.00,292,WeatherCatV1.20B653,2013-07-27 21:01:00,
2013-07-27 15:06:00,71.5,40.9,30.23,ENE,58,1.0,16.0,33,0.00,,,0.00,362,WeatherCatV1.20B653,2013-07-27 21:06:00,
2013-07-27 15:11:00,70.9,39.6,30.23,NNE,13,11.0,25.0,32,0.00,,,0.00,285,WeatherCatV1.20B653,2013-07-27 21:11:00,
2013-07-27 15:16:00,70.8,40.3,30.23,NE,55,12.0,12.0,33,0.00,,,0.00,264,WeatherCatV1.20B653,2013-07-27 21:16:00,
2013-07-27 15:21:00,70.4,41.4,30.23,NNE,25,10.0,14.0,35,0.00,,,0.00,267,WeatherCatV1.20B653,2013-07-27 21:21:00,
2013-07-27 15:26:00,70.3,40.6,30.23,NNE,31,5.0,11.0,34,0.00,,,0.00,216,WeatherCatV1.20B653,2013-07-27 21:26:00,
2013-07-27 15:31:00,69.4,40.5,30.24,ESE,121,14.0,17.0,35,0.00,,,0.00,199,WeatherCatV1.20B653,2013-07-27 21:31:00,
2013-07-27 15:36:00,68.9,44.8,30.24,ESE,113,7.0,12.0,42,0.00,,,0.00,216,WeatherCatV1.20B653,2013-07-27 21:36:00,
2013-07-27 15:41:00,68.6,43.3,30.24,ESE,104,7.0,16.0,40,0.00,,,0.00,239,WeatherCatV1.20B653,2013-07-27 21:41:00,
2013-07-27 15:46:00,68.1,44.8,30.24,SSE,147,8.0,14.0,43,0.00,,,0.00,304,WeatherCatV1.20B653,2013-07-27 21:46:00,
2013-07-27 15:51:00,68.3,45.5,30.24,East,90,5.0,11.0,44,0.00,,,0.00,324,WeatherCatV1.20B653,2013-07-27 21:51:00,
2013-07-27 15:56:00,69.3,45.8,30.24,ESE,107,5.0,8.0,43,0.00,,,0.00,313,WeatherCatV1.20B653,2013-07-27 21:56:00,
2013-07-27 16:01:00,68.9,46.1,30.25,SSE,168,5.0,9.0,44,0.00,,,0.00,348,WeatherCatV1.20B653,2013-07-27 22:01:00,
2013-07-27 16:06:00,68.6,45.8,30.25,SE,138,8.0,11.0,44,0.00,,,0.00,276,WeatherCatV1.20B653,2013-07-27 22:06:00,
2013-07-27 16:11:00,68.3,43.0,30.25,East,95,0.0,6.0,40,0.00,,,0.00,262,WeatherCatV1.20B653,2013-07-27 22:11:00,
2013-07-27 16:16:00,68.3,44.9,30.24,East,95,0.0,0.0,43,0.00,,,0.00,232,WeatherCatV1.20B653,2013-07-27 22:16:00,
2013-07-27 16:21:00,68.1,44.1,30.24,East,95,0.0,1.0,42,0.00,,,0.00,201,WeatherCatV1.20B653,2013-07-27 22:21:00,
2013-07-27 16:26:00,68.3,43.7,30.24,East,95,0.0,1.0,41,0.00,,,0.00,176,WeatherCatV1.20B653,2013-07-27 22:26:00,
2013-07-27 16:31:00,68.3,42.4,30.24,East,95,0.0,1.0,39,0.00,,,0.00,134,WeatherCatV1.20B653,2013-07-27 22:31:00,
2013-07-27 16:36:00,68.1,42.9,30.24,East,95,0.0,0.0,40,0.00,,,0.00,70,WeatherCatV1.20B653,2013-07-27 22:36:00,
2013-07-27 16:41:00,67.9,42.7,30.24,East,95,0.0,0.0,40,0.00,,,0.00,49,WeatherCatV1.20B653,2013-07-27 22:41:00,
2013-07-27 16:46:00,67.6,43.7,30.24,East,95,0.0,0.0,42,0.00,,,0.00,28,WeatherCatV1.20B653,2013-07-27 22:46:00,
2013-07-27 16:51:00,67.3,43.4,30.24,WNW,284,6.0,8.0,42,0.00,,,0.00,23,WeatherCatV1.20B653,2013-07-27 22:51:00,
2013-07-27 16:56:00,65.5,49.4,30.24,NW,313,19.0,26.0,56,0.00,,,0.00,26,WeatherCatV1.20B653,2013-07-27 22:56:00,
2013-07-27 17:01:00,61.0,49.6,30.25,North,349,14.0,18.0,66,0.00,,,0.01,33,WeatherCatV1.20B653,2013-07-27 23:01:00,
2013-07-27 17:06:00,59.0,48.8,30.25,NNW,333,6.0,18.0,69,0.00,,,0.01,46,WeatherCatV1.20B653,2013-07-27 23:06:00,
2013-07-27 17:11:00,58.4,49.0,30.25,North,354,9.0,19.0,71,0.00,,,0.01,69,WeatherCatV1.20B653,2013-07-27 23:11:00,
2013-07-27 17:16:00,58.6,49.2,30.25,NNW,343,11.0,14.0,71,0.00,,,0.01,67,WeatherCatV1.20B653,2013-07-27 23:16:00,
2013-07-27 17:21:00,58.7,49.7,30.25,NNW,332,6.0,17.0,72,0.00,,,0.01,58,WeatherCatV1.20B653,2013-07-27 23:21:00,
2013-07-27 17:26:00,58.7,48.5,30.25,NW,304,13.0,21.0,69,0.00,,,0.02,56,WeatherCatV1.20B653,2013-07-27 23:26:00,
2013-07-27 17:31:00,58.9,49.1,30.26,NW,325,6.0,11.0,70,0.00,,,0.02,49,WeatherCatV1.20B653,2013-07-27 23:31:00,
2013-07-27 17:36:00,58.9,48.8,30.26,North,352,7.0,11.0,69,0.00,,,0.02,48,WeatherCatV1.20B653,2013-07-27 23:36:00,
2013-07-27 17:41:00,58.9,49.1,30.26,NNW,332,11.0,14.0,70,0.00,,,0.02,48,WeatherCatV1.20B653,2013-07-27 23:41:00,
2013-07-27 17:46:00,59.2,48.6,30.25,NW,309,17.0,20.0,68,0.00,,,0.02,48,WeatherCatV1.20B653,2013-07-27 23:46:00,
2013-07-27 17:51:00,59.5,48.5,30.25,West,261,2.0,12.0,67,0.00,,,0.02,62,WeatherCatV1.20B653,2013-07-27 23:51:00,
2013-07-27 17:56:00,59.6,47.8,30.25,WNW,292,13.0,22.0,65,0.00,,,0.02,63,WeatherCatV1.20B653,2013-07-27 23:56:00,
2013-07-27 18:01:00,59.6,48.6,30.25,WNW,296,9.0,19.0,67,0.00,,,0.02,62,WeatherCatV1.20B653,2013-07-28 00:01:00,
2013-07-27 18:06:00,59.3,48.3,30.25,North,349,9.0,12.0,67,0.00,,,0.02,76,WeatherCatV1.20B653,2013-07-28 00:06:00,
2013-07-27 18:11:00,59.0,49.2,30.25,NW,306,6.0,8.0,70,0.00,,,0.02,84,WeatherCatV1.20B653,2013-07-28 00:11:00,
2013-07-27 18:16:00,58.7,48.9,30.25,NNW,330,7.0,19.0,70,0.00,,,0.02,93,WeatherCatV1.20B653,2013-07-28 00:16:00,
2013-07-27 18:21:00,58.7,48.2,30.25,NW,313,5.0,20.0,68,0.00,,,0.03,83,WeatherCatV1.20B653,2013-07-28 00:21:00,
2013-07-27 18:26:00,58.9,48.4,30.25,NW,316,10.0,10.0,68,0.00,,,0.03,70,WeatherCatV1.20B653,2013-07-28 00:26:00,
2013-07-27 18:31:00,59.0,48.8,30.25,NW,311,2.0,8.0,69,0.00,,,0.03,58,WeatherCatV1.20B653,2013-07-28 00:31:00,
2013-07-27 18:36:00,59.0,48.1,30.25,NW,313,5.0,12.0,67,0.00,,,0.03,49,WeatherCatV1.20B653,2013-07-28 00:36:00,
2013-07-27 18:41:00,59.2,47.8,30.25,NNW,344,8.0,10.0,66,0.00,,,0.03,40,WeatherCatV1.20B653,2013-07-28 00:41:00,
2013-07-27 18:46:00,59.3,47.5,30.25,West,275,8.0,19.0,65,0.00,,,0.03,35,WeatherCatV1.20B653,2013-07-28 00:46:00,
2013-07-27 18:51:00,59.5,47.3,30.25,WNW,298,6.0,12.0,64,0.00,,,0.03,30,WeatherCatV1.20B653,2013-07-28 00:51:00,
2013-07-27 18:56:00,59.5,46.9,30.25,WNW,292,13.0,19.0,63,0.00,,,0.03,23,WeatherCatV1.20B653,2013-07-28 00:56:00,
2013-07-27 19:01:00,59.2,47.8,30.25,WNW,289,8.0,17.0,66,0.00,,,0.03,18,WeatherCatV1.20B653,2013-07-28 01:01:00,
2013-07-27 19:06:00,58.6,48.8,30.25,NNW,337,5.0,12.0,70,0.00,,,0.03,14,WeatherCatV1.20B653,2013-07-28 01:06:00,
2013-07-27 19:11:00,58.0,48.7,30.25,WNW,287,5.0,8.0,71,0.00,,,0.03,12,WeatherCatV1.20B653,2013-07-28 01:11:00,
2013-07-27 19:16:00,57.5,48.9,30.25,NW,308,2.0,9.0,73,0.00,,,0.03,11,WeatherCatV1.20B653,2013-07-28 01:16:00,
2013-07-27 19:21:00,57.2,48.2,30.25,WNW,302,3.0,19.0,72,0.00,,,0.04,9,WeatherCatV1.20B653,2013-07-28 01:21:00,
2013-07-27 19:26:00,56.7,48.5,30.25,NW,323,9.0,18.0,74,0.00,,,0.04,11,WeatherCatV1.20B653,2013-07-28 01:26:00,
2013-07-27 19:31:00,56.2,48.7,30.25,NW,308,7.0,14.0,76,0.08,,,0.05,9,WeatherCatV1.20B653,2013-07-28 01:31:00,
2013-07-27 19:36:00,55.9,48.8,30.25,NNW,339,5.0,17.0,77,0.08,,,0.06,9,WeatherCatV1.20B653,2013-07-28 01:36:00,
2013-07-27 19:41:00,55.6,48.5,30.25,NW,326,4.0,13.0,77,0.09,,,0.07,9,WeatherCatV1.20B653,2013-07-28 01:41:00,
2013-07-27 19:46:00,55.3,48.9,30.25,NNW,342,13.0,15.0,79,0.09,,,0.07,11,WeatherCatV1.20B653,2013-07-28 01:46:00,
2013-07-27 19:51:00,55.1,48.0,30.25,NW,319,7.0,14.0,77,0.06,,,0.07,12,WeatherCatV1.20B653,2013-07-28 01:51:00,
2013-07-27 19:56:00,55.3,47.9,30.25,West,275,7.0,11.0,76,0.04,,,0.07,12,WeatherCatV1.20B653,2013-07-28 01:56:00,
2013-07-27 20:01:00,55.3,48.9,30.25,NW,304,7.0,8.0,79,0.00,,,0.07,12,WeatherCatV1.20B653,2013-07-28 02:01:00,
2013-07-27 20:06:00,55.1,49.0,30.25,North,352,4.0,8.0,80,0.00,,,0.07,11,WeatherCatV1.20B653,2013-07-28 02:06:00,
2013-07-27 20:11:00,55.0,48.9,30.25,North,352,5.0,8.0,80,0.00,,,0.07,7,WeatherCatV1.20B653,2013-07-28 02:11:00,
2013-07-27 20:16:00,54.8,49.4,30.25,North,352,1.0,2.0,82,0.00,,,0.07,0,WeatherCatV1.20B653,2013-07-28 02:16:00,
2013-07-27 20:21:00,54.5,49.4,30.25,SE,124,6.0,8.0,83,0.00,,,0.07,0,WeatherCatV1.20B653,2013-07-28 02:21:00,
2013-07-27 20:26:00,54.5,49.1,30.25,SE,124,0.0,0.0,82,0.00,,,0.07,0,WeatherCatV1.20B653,2013-07-28 02:26:00,
2013-07-27 20:31:00,54.4,49.0,30.25,SE,124,0.0,0.0,82,0.00,,,0.07,0,WeatherCatV1.20B653,2013-07-28 02:31:00,
2013-07-27 20:36:00,54.4,49.7,30.25,SE,124,0.0,0.0,84,0.00,,,0.07,0,WeatherCatV1.20B653,2013-07-28 02:36:00,
2013-07-27 20:41:00,54.1,49.4,30.25,SE,124,0.0,0.0,84,0.00,,,0.07,0,WeatherCatV1.20B653,2013-07-28 02:41:00,
2013-07-27 20:46:00,53.9,49.5,30.25,SE,124,0.0,0.0,85,0.00,,,0.07,0,WeatherCatV1.20B653,2013-07-28 02:46:00,
2013-07-27 20:51:00,53.8,49.7,30.25,SE,124,0.0,0.0,86,0.00,,,0.07,0,WeatherCatV1.20B653,2013-07-28 02:51:00,
2013-07-27 20:56:00,53.6,49.5,30.25,SE,124,0.0,0.0,86,0.00,,,0.07,0,WeatherCatV1.20B653,2013-07-28 02:56:00,
2013-07-27 21:01:00,53.5,49.7,30.25,SE,124,0.0,0.0,87,0.00,,,0.07,0,WeatherCatV1.20B653,2013-07-28 03:01:00,
2013-07-27 21:06:00,53.3,49.5,30.25,SE,124,0.0,0.0,87,0.00,,,0.07,0,WeatherCatV1.20B653,2013-07-28 03:06:00,
2013-07-27 21:11:00,53.3,49.8,30.25,SE,124,0.0,1.0,88,0.00,,,0.07,0,WeatherCatV1.20B653,2013-07-28 03:11:00,
2013-07-27 21:16:00,53.3,50.1,30.26,SE,124,3.0,5.0,89,0.00,,,0.07,0,WeatherCatV1.20B653,2013-07-28 03:16:00,
2013-07-27 21:21:00,53.3,50.1,30.26,North,3,1.0,3.0,89,0.00,,,0.07,0,WeatherCatV1.20B653,2013-07-28 03:21:00,
2013-07-27 21:26:00,53.3,50.1,30.26,North,3,0.0,0.0,89,0.00,,,0.07,0,WeatherCatV1.20B653,2013-07-28 03:26:00,
2013-07-27 21:31:00,53.2,49.4,30.26,WNW,294,5.0,8.0,87,0.00,,,0.07,0,WeatherCatV1.20B653,2013-07-28 03:31:00,
2013-07-27 21:36:00,53.2,49.1,30.26,WNW,299,5.0,8.0,86,0.00,,,0.07,0,WeatherCatV1.20B653,2013-07-28 03:36:00,
2013-07-27 21:41:00,53.2,49.1,30.26,WNW,302,5.0,7.0,86,0.00,,,0.07,0,WeatherCatV1.20B653,2013-07-28 03:41:00,
2013-07-27 21:46:00,53.3,48.9,30.26,WNW,302,6.0,8.0,85,0.00,,,0.07,0,WeatherCatV1.20B653,2013-07-28 03:46:00,
2013-07-27 21:51:00,53.5,48.8,30.26,WNW,302,3.0,5.0,84,0.00,,,0.07,0,WeatherCatV1.20B653,2013-07-28 03:51:00,
2013-07-27 21:56:00,53.6,48.6,30.26,WNW,294,3.0,6.0,83,0.00,,,0.07,0,WeatherCatV1.20B653,2013-07-28 03:56:00,
2013-07-27 22:01:00,53.8,49.1,30.26,WNW,282,2.0,6.0,84,0.00,,,0.07,0,WeatherCatV1.20B653,2013-07-28 04:01:00,
2013-07-27 22:02:00,53.8,49.1,30.26,WNW,282,1.0,6.0,84,0.00,,,0.07,0,WeatherCatV1.20B653,2013-07-28 04:02:00,
2013-07-27 22:06:00,53.9,49.2,30.26,WNW,282,0.0,0.0,84,0.00,,,0.07,0,WeatherCatV1.20B653,2013-07-28 04:06:00,
2013-07-27 22:11:00,53.9,49.5,30.26,WNW,282,0.0,0.0,85,0.00,,,0.07,0,WeatherCatV1.20B653,2013-07-28 04:11:00,
2013-07-27 22:16:00,53.9,49.5,30.26,WNW,282,0.0,1.0,85,0.00,,,0.07,0,WeatherCatV1.20B653,2013-07-28 04:16:00,
2013-07-27 22:21:00,53.9,48.9,30.26,WNW,282,3.0,5.0,83,0.00,,,0.07,0,WeatherCatV1.20B653,2013-07-28 04:21:00,
2013-07-27 22:26:00,53.9,49.2,30.26,WNW,282,0.0,0.0,84,0.00,,,0.07,0,WeatherCatV1.20B653,2013-07-28 04:26:00,
2013-07-27 22:31:00,53.9,49.2,30.25,WNW,282,0.0,0.0,84,0.00,,,0.07,0,WeatherCatV1.20B653,2013-07-28 04:31:00,
2013-07-27 22:36:00,53.9,48.9,30.25,WNW,282,3.0,4.0,83,0.00,,,0.07,0,WeatherCatV1.20B653,2013-07-28 04:36:00,
2013-07-27 22:41:00,53.9,48.9,30.25,WNW,282,0.0,0.0,83,0.00,,,0.07,0,WeatherCatV1.20B653,2013-07-28 04:41:00,
2013-07-27 22:46:00,54.1,50.0,30.25,West,281,0.0,0.0,86,0.00,,,0.07,0,WeatherCatV1.20B653,2013-07-28 04:46:00,
2013-07-27 22:51:00,53.9,49.2,30.25,West,281,0.0,0.0,84,0.00,,,0.07,0,WeatherCatV1.20B653,2013-07-28 04:51:00,
2013-07-27 22:56:00,53.9,49.8,30.25,West,281,0.0,0.0,86,0.00,,,0.07,0,WeatherCatV1.20B653,2013-07-28 04:56:00,
2013-07-27 23:01:00,53.9,49.8,30.25,West,281,0.0,0.0,86,0.00,,,0.07,0,WeatherCatV1.20B653,2013-07-28 05:01:00,
2013-07-27 23:06:00,53.9,49.8,30.25,West,281,0.0,0.0,86,0.00,,,0.07,0,WeatherCatV1.20B653,2013-07-28 05:06:00,
2013-07-27 23:11:00,53.9,49.8,30.25,WNW,282,0.0,1.0,86,0.00,,,0.07,0,WeatherCatV1.20B653,2013-07-28 05:11:00,
2013-07-27 23:16:00,53.8,49.7,30.25,WNW,282,0.0,0.0,86,0.00,,,0.07,0,WeatherCatV1.20B653,2013-07-28 05:16:00,
2013-07-27 23:21:00,53.8,49.7,30.25,WNW,282,0.0,0.0,86,0.00,,,0.07,0,WeatherCatV1.20B653,2013-07-28 05:21:00,
2013-07-27 23:26:00,53.9,49.8,30.25,WNW,282,0.0,0.0,86,0.00,,,0.07,0,WeatherCatV1.20B653,2013-07-28 05:26:00,
2013-07-27 23:31:00,53.8,49.7,30.25,WNW,282,0.0,0.0,86,0.00,,,0.08,0,WeatherCatV1.20B653,2013-07-28 05:31:00,
2013-07-27 23:36:00,53.8,50.0,30.25,WNW,282,0.0,0.0,87,0.00,,,0.08,0,WeatherCatV1.20B653,2013-07-28 05:36:00,
2013-07-27 23:41:00,53.8,50.3,30.25,WNW,282,0.0,0.0,88,0.00,,,0.08,0,WeatherCatV1.20B653,2013-07-28 05:41:00,
2013-07-27 23:46:00,53.8,50.3,30.24,WNW,282,0.0,0.0,88,0.00,,,0.08,0,WeatherCatV1.20B653,2013-07-28 05:46:00,
2013-07-27 23:51:00,53.8,50.6,30.24,WNW,282,0.0,0.0,89,0.00,,,0.08,0,WeatherCatV1.20B653,2013-07-28 05:51:00,
2013-07-27 23:56:00,53.8,50.6,30.24,WNW,282,0.0,0.0,89,0.00,,,0.08,0,WeatherCatV1.20B653,2013-07-28 05:56:00,